Flag for France Weather past 2 weeks in Auxerre, France

Now
59 °F

Sunny.


Feels Like: 58 °F
Forecast: 49 / 72 °F
Wind: 7 mph from West

Location: Troyes Airport

Current Time: Jul 29, 2015 at 10:35:21 PM

Latest Report: Jul 29, 2015 at 10:00 PM


Visibility: 10 mi

Pressure: 29.98 "Hg

Humidity: 55%

Dew point: 43 °F

Location of AuxerreLocation

Historic Weather in Auxerre — Graph

°F

Auxerre temperature yesterday

Maximum temperature yesterday: 73 °F (at 2:30 PM)
Minimum temperature yesterday: 55 °F (at 11:00 PM)
Average temperature yesterday: 64 °F

Past Weeks' High & Low Weather Summary

 TemperatureHumidityPressure
High99 °F (Jul 16, 4:30 PM)100% (Jul 19, 4:00 AM)30.15 "Hg (Jul 19, 4:00 AM)
Low41 °F (Jul 26, 5:00 AM)17% (Jul 16, 4:30 PM)29.68 "Hg (Jul 25, 12:30 AM)
Average71 °F63%29.95 "Hg
* Reported Jul 14 9:00 PM — Jul 29 9:30 PM, Auxerre, Weather by CustomWeather, © 2015

Note: Actual official high and low records may vary slightly from our data, if they occured in-between our weather recording intervals... More about our weather records

Advertising

Auxerre weather history for previous 24 hours

 ConditionsComfort  
Time TempWeatherWind HumidityBarometerVisibility
9:30 PM
Wed, Jul 29
61 °FSunny.8 mph52%29.98 "Hg10 mi
9:00 PM63 °FSunny.7 mph49%29.95 "Hg10 mi
8:30 PM68 °FSunny.8 mph38%29.95 "Hg10 mi
8:00 PM68 °FSunny.6 mph40%29.95 "Hg10 mi
7:30 PM72 °FPassing clouds.7 mph33%29.95 "HgN/A
7:00 PM72 °FSunny.12 mph33%29.95 "Hg10 mi
6:30 PM72 °FSunny.13 mph33%29.95 "Hg10 mi
6:00 PM70 °FSunny.12 mph38%29.95 "Hg10 mi
5:30 PM73 °FSunny.12 mph33%29.95 "Hg10 mi
5:00 PM72 °FSunny.13 mph36%29.95 "Hg10 mi
4:30 PM70 °FPassing clouds.15 mph38%29.95 "HgN/A
4:00 PM72 °FPassing clouds.14 mph36%29.95 "HgN/A
3:30 PM70 °FPassing clouds.13 mph38%29.92 "HgN/A
3:00 PM68 °FPassing clouds.12 mph40%29.92 "HgN/A
2:30 PM70 °FPassing clouds.12 mph40%29.92 "HgN/A
2:00 PM68 °FScattered clouds.12 mph46%29.92 "HgN/A
1:30 PM68 °FPassing clouds.10 mph46%29.92 "HgN/A
1:00 PM64 °FPartly sunny.10 mph52%29.92 "HgN/A
12:30 PM64 °FPassing clouds.9 mph56%29.92 "HgN/A
12:00 PM63 °FScattered clouds.10 mph64%29.92 "HgN/A
11:30 AM61 °FScattered clouds.9 mph68%29.92 "HgN/A
11:00 AM59 °FBroken clouds.8 mph77%29.92 "HgN/A
10:30 AM57 °FPartly sunny.9 mph88%29.92 "HgN/A
9:30 AM54 °FPartly sunny.3 mph94%29.89 "HgN/A
9:00 AM54 °FMostly cloudy.5 mph94%29.89 "HgN/A
8:30 AM54 °FDrizzle. Partly sunny.6 mph94%29.89 "HgN/A
8:00 AM52 °FDrizzle. Fog.8 mph100%29.89 "Hg3 mi
7:30 AM52 °FLight rain. Fog.9 mph94%29.89 "Hg3 mi
7:00 AM54 °FLight rain. Mostly cloudy.8 mph94%29.89 "Hg5 mi
6:30 AM54 °FLight rain. Fog.6 mph100%29.89 "Hg2 mi
5:30 AM54 °FDrizzle. Overcast.5 mph94%29.89 "Hg4 mi
5:00 AM54 °FLight rain. Fog.7 mph100%29.89 "Hg2 mi
4:30 AM54 °FLight rain. Fog.7 mph94%29.89 "Hg3 mi
4:00 AM55 °FOvercast.6 mph88%29.89 "HgN/A
3:30 AM55 °FOvercast.5 mph88%29.89 "HgN/A
3:00 AM55 °FOvercast.No wind88%29.89 "HgN/A
2:30 AM55 °FPassing clouds.3 mph82%29.92 "HgN/A
2:00 AM55 °FOvercast.3 mph88%29.92 "HgN/A
1:30 AM55 °FPassing clouds.5 mph88%29.92 "HgN/A
1:00 AM55 °FOvercast.5 mph88%29.92 "HgN/A
12:30 AM55 °FOvercast.3 mph88%29.92 "HgN/A
12:00 AM55 °FOvercast.7 mph88%29.92 "HgN/A
11:30 PM
Tue, Jul 28
55 °FOvercast.7 mph88%29.92 "HgN/A
11:00 PM55 °FOvercast.7 mph88%29.92 "HgN/A
10:30 PM57 °FOvercast.7 mph82%29.92 "HgN/A
10:00 PM57 °FOvercast.5 mph82%29.92 "HgN/A
Weather by CustomWeather, © 2015

See weather overviewHow to use our weather pages